Showing default

INTELSAT 10 (PAS 10), 26766

Orbit data source: Space-Track

INTELSAT 10 (PAS 10), 26766 is a payload satellite owned by Panamsat (US) in GEO that was launched on Tue, 15 May 2001 UTC via a PROTON-K/DM-2M launch vehicle from the Tyuratam Missile And Space Complex (TTMTR). Payload-class satellites include a variety of spacecraft equipped with specific instruments for various scientific and technological missions. These include communications satellites like Starlink; space stations such as the ISS; scientific satellites like the Hubble; Earth observation satellites from companies like Planet Labs, Umbra, and HawkEye 360; GPS; miniature CubeSats for education and research; and military/defense satellites.

Not visible in the next 10 days
Identifier
26766, 2001-019A
Orbit
GEO
Country
Flag of USUS
Related business
Manufacturer
Boeing/ES
Mission
On reserve Commercial Communications
Bus & Motor
HS-601HP, R-4D-11-300
Mass
3,772 kg wet, ~2,000 kg dry
Launch date (UTC)
2001-05-15 (25 years ago)
Launch vehicle
PROTON-K/DM-2M
Launch site
Tyuratam Missile And Space Complex (TTMTR)
Object type
Payload
Rocket body
Debris
Shape & HBR
Box + 2 Pan, 13.0 m
Radar Cross Section
31.072 m², Large (>1 m²)

Expand to show TLE details & history
Last TLE update: 17 hours ago

TLE from 17 hours ago
0 INTELSAT 10 (PAS 10)
1 26766U 01019A   25346.58289676 -.00000280  00000-0  00000-0 0  9990
2 26766   8.6297  61.1594 0007760 225.2530 144.4037  0.99078624 43731
Epoch: 2025-12-12T13:59Z
TLE epoch observation values (Epoch: 2025-12-12T13:59:22.280Z)
Latitude
1.46756°
Longitude
139.39237°
Altitude
36,150.732 km
Speed
3.061 km/s
True Right ascension
04h 43m 01s
True Declination
1° 27' 58"
Sunlit
Object was in daylight at epoch
Visualization orbit readout
Latitude
Unknown
Longitude
Unknown
Altitude
Unknown
Speed
Unknown
Apparent Right ascension
Unknown
Apparent Declination
Unknown
Sunlit
N/A
Visualization observer readout
Local Sidereal Time
05:24:08
Azimuth
Unknown
Elevation
Unknown
Doppler factor
Unknown
Orbital elements
Apogee altitude
36,158.444 km
Perigee altitude
36,092.478 km
Semi-major axis
42,503.598 km
Eccentricity
0.00078
Inclination
8.6297°
RAAN
61.1594°
Arg. of periapsis
225.253°
True anomaly
144.45542°
Mean anomaly
144.4037°
Eccentric anomaly
144.42956°
Mean motion
0.24769 °/min
Orbital period
1,453.44 mins
BSTAR
0
Loading maneuver chart data...
Computing Atmospheric mass density...
Loading historical data...
Loading historical data...
Loading historical data...
Loading historical data...
Loading historical data...
Loading historical data...
Loading historical data...
Other satellites on launch #19 in the year 2001 (2001-05-15 UTC)

Documentation

Showing up to 5 results
|